Regional Weather Roundup
Issued by NWS

Home | Current Version | Previous Version | Text Only | Print | Product List | Glossary On
Versions: 1 2 3 4 5 6 7 8 9 10 11 12 13 14 15 16 17 18 19 20 21 22 23 24 25 26 27 28 29 30 31 32 33 34 35 36 37 38 39 40 41 42 43 44 45 46 47 48 49 50
000
ASCA42 TJSJ 031510
RWRPR
PUERTO RICO/U.S. VIRGIN ISLANDS HOURLY WEATHER ROUNDUP
NATIONAL WEATHER SERVICE SAN JUAN PR
1100 AM AST TUE MAR 03 2015

PRZ001-004-031600-
PUERTO RICO

CITY           SKY/WX    TMP DP  RH WIND       PRES   REMARKS
SAN JUAN LMM   MOSUNNY   79  72  78 NE15      30.12R
MAYAGUEZ       MOSUNNY   81  66  61 SE14      30.12
AGUADILLA      MOSUNNY   81  68  65 E20G25    30.11S
CEIBA          MOSUNNY  N/A N/A N/A NE13G20   30.13R
$$

PRZ006-007-031600-
U.S. VIRGIN ISLANDS

CITY           SKY/WX    TMP DP  RH WIND       PRES   REMARKS
$$

HOURLY WEATHER ROUNDUP FOR THE NEWS MEDIA

CITY           SKY/WX    TMP DP  RH WIND       PRES   REMARKS
ORLANDO        MOSUNNY   72  68  87 E3        30.25S
NEW YORK       CLOUDY    29   7  39 SE6       30.44F WCI  23
NEWARK         CLOUDY    27  10  49 CALM      30.43F
CHICAGO        CLOUDY    29  26  89 S20G26    29.75F FOG     WCI  16
HARTFORD       SUNNY     26   3  37 W12       30.40F WCI  16
BOSTON         PTSUNNY   25   2  37 W7        30.39F WCI  17
DALLAS         CLOUDY    45  43  93 S5        30.01R FOG
PHILADELPHIA   CLOUDY    29  11  47 CALM      30.46F
LOS ANGELES    PTCLDY    49  43  80 CALM      29.95R
WASHINGTON DC  PTSUNNY   31  14  49 SE8       30.40F WCI  23



USA.gov is the U.S. government's official web portal to all federal, state and local government web resources and services.